Location: Unspecified
(49.2170°N, 0.0000°E)
Time: 20:11:01
(UTC+00:00)

Tiros 1 despin weight - All Passes

Search period start: 21 January 2021 00:00
Search period end: 31 January 2021 00:00
Orbit: 594 x 641 km, 48.2° (Epoch: 20 January)

Date Brightness Start Highest point End Pass type
(mag) Time Alt. Az. Time Alt. Az. Time Alt. Az.
21 Jan - 14:28:12 10° S 14:30:40 15° SE 14:33:08 10° ESE daylight
21 Jan - 16:07:09 10° SW 16:11:27 45° SSE 16:15:43 10° E daylight
21 Jan - 17:48:19 10° W 17:52:48 79° S 17:57:15 10° E visible
21 Jan - 19:29:51 10° W 19:34:15 61° SSW 19:38:36 10° ESE visible
21 Jan - 21:11:45 10° W 21:15:15 23° SW 21:18:45 10° SSE visible
22 Jan - 14:43:05 10° SSW 14:46:42 24° SE 14:50:17 10° E daylight
22 Jan - 16:23:17 10° WSW 16:27:44 61° SSE 16:32:08 10° E daylight
22 Jan - 18:04:42 10° W 18:09:11 79° S 18:13:37 10° E visible
22 Jan - 19:46:17 10° W 19:50:31 44° SSW 19:54:43 10° SE visible
22 Jan - 21:28:58 10° WSW 21:31:16 14° SW 21:33:34 10° S visible
23 Jan - 13:21:34 10° SE 13:22:12 10° SE 13:22:51 10° SE daylight
23 Jan - 14:58:40 10° SW 15:02:50 36° SSE 15:06:56 10° E daylight
23 Jan - 16:39:35 10° WSW 16:44:05 74° S 16:48:32 10° E daylight
23 Jan - 18:21:06 10° W 18:25:33 70° SSW 18:29:57 10° ESE visible
23 Jan - 20:02:49 10° W 20:06:42 30° SSW 20:10:34 10° SSE visible
24 Jan - 13:35:03 10° S 13:38:10 18° SE 13:41:14 10° E daylight
24 Jan - 15:14:39 10° SW 15:19:04 52° SSE 15:23:25 10° E daylight
24 Jan - 16:55:57 10° W 17:00:28 80° S 17:04:54 10° E daylight
24 Jan - 18:37:30 10° W 18:41:52 54° SSW 18:46:11 10° ESE visible
24 Jan - 20:19:38 10° W 20:22:47 19° SW 20:25:55 10° S visible
25 Jan - 13:50:18 10° SSW 13:54:14 29° SSE 13:58:07 10° E daylight
25 Jan - 15:30:52 10° WSW 15:35:22 67° SSE 15:39:49 10° E daylight
25 Jan - 17:12:20 10° W 17:16:51 76° S 17:21:17 10° ESE visible
25 Jan - 18:53:58 10° W 18:58:06 38° SSW 19:02:12 10° SE visible
25 Jan - 20:37:32 10° WSW 20:38:44 11° SW 20:39:56 10° SSW visible
26 Jan - 12:27:26 10° SSE 12:29:40 13° SE 12:31:51 10° ESE daylight
26 Jan - 14:06:05 10° SW 14:10:24 43° SSE 14:14:40 10° E daylight
26 Jan - 15:47:12 10° W 15:51:43 78° S 15:56:12 10° E daylight
26 Jan - 17:28:44 10° W 17:33:12 64° SSW 17:37:35 10° ESE visible
26 Jan - 19:10:35 10° W 19:14:15 25° SSW 19:17:52 10° SSE visible
27 Jan - 12:42:06 10° SSW 12:45:40 22° SE 12:49:10 10° E daylight
27 Jan - 14:22:10 10° WSW 14:26:40 59° SSE 14:31:06 10° E daylight
27 Jan - 16:03:35 10° W 16:08:07 79° S 16:12:35 10° E daylight
27 Jan - 17:45:09 10° W 17:49:28 48° SSW 17:53:45 10° SE visible
27 Jan - 19:27:37 10° WSW 19:30:16 16° SW 19:32:54 10° S visible
28 Jan - 12:57:37 10° SW 13:01:46 34° SSE 13:05:53 10° E daylight
28 Jan - 14:38:27 10° WSW 14:43:00 73° S 14:47:30 10° E daylight
28 Jan - 16:19:58 10° W 16:24:29 72° S 16:28:56 10° ESE daylight
28 Jan - 18:01:40 10° W 18:05:41 33° SSW 18:09:38 10° SE visible
29 Jan - 11:34:10 10° S 11:37:07 17° SE 11:40:03 10° E daylight
29 Jan - 13:13:33 10° SW 13:17:59 49° SSE 13:22:21 10° E daylight
29 Jan - 14:54:48 10° W 14:59:22 80° S 15:03:53 10° E daylight
29 Jan - 16:36:22 10° W 16:40:48 57° SSW 16:45:10 10° ESE daylight
29 Jan - 18:18:24 10° W 18:21:46 21° SW 18:25:06 10° SSE visible
30 Jan - 11:49:17 10° SSW 11:53:10 27° SSE 11:57:01 10° E daylight
30 Jan - 13:29:43 10° WSW 13:34:17 65° SSE 13:38:46 10° E daylight
30 Jan - 15:11:12 10° W 15:15:46 77° S 15:20:14 10° E daylight
30 Jan - 16:52:49 10° W 16:57:04 41° SSW 17:01:15 10° SE daylight
30 Jan - 18:35:53 10° WSW 18:37:44 12° SW 18:39:36 10° SSW visible
